Wind_Speed
18 18 17 16 16 16 15 14 13 12 12 11 11 10 9 9 8 7 6 6 5 5 4 4 4 4 4 4 5 5 5 6 7 8 8 9 10 11 11 12 12 13 14
19 19 19 18 17 17 17 16 15 14 14 13 12 12 11 10 9 8 8 7 7 6 6 6 6 6 5 6 6 6 7 7 8 9 9 10 11 11 12 12 13 14 15
21 20 20 20 19 19 18 18 17 16 16 15 14 13 12 11 10 10 9 9 8 8 7 7 7 7 7 7 7 7 8 8 9 10 11 11 12 12 13 13 14 15 15
23 22 21 21 20 20 20 19 19 19 18 17 16 15 14 13 12 11 11 10 10 9 9 8 8 8 8 8 8 8 9 10 10 11 12 13 13 13 14 14 15 16 16
25 23 23 22 22 21 21 21 20 20 20 19 18 17 16 15 14 14 13 12 12 11 10 10 9 9 9 9 10 10 10 10 11 12 13 14 14 15 15 16 16 17 17
26 25 25 24 24 23 22 22 22 21 21 20 20 19 18 17 16 15 14 14 13 12 12 11 11 11 11 11 11 11 12 12 13 14 14 15 15 16 17 17 18 18 19
29 27 27 26 25 25 24 24 23 22 22 21 21 20 20 19 18 17 16 15 14 14 13 13 13 12 12 12 13 13 13 13 14 15 16 16 17 17 18 19 19 20 20
31 30 28 28 27 27 26 26 25 25 24 23 23 22 22 21 20 19 18 17 16 16 15 15 15 14 14 14 14 14 15 15 16 17 17 18 18 18 19 20 20 21 21
33 32 30 30 29 29 28 28 27 27 26 25 25 25 24 23 22 21 20 19 18 17 17 17 17 16 16 16 16 16 16 17 17 18 19 20 20 20 21 21 22 22 22
35 34 32 31 31 30 30 30 29 29 28 27 27 27 26 25 25 24 22 21 20 19 18 18 18 18 18 18 18 18 18 18 19 20 20 21 21 22 22 23 23 24 24
37 36 34 33 32 32 32 32 32 31 30 29 29 29 28 27 27 25 24 23 21 21 20 20 20 20 19 20 19 20 20 20 20 21 21 22 23 23 24 25 25 25 25
39 38 36 35 34 34 34 34 33 32 32 31 30 30 30 29 28 27 26 25 23 22 22 22 21 21 21 21 21 21 22 22 22 22 23 23 24 25 25 26 26 27 27
40 39 39 37 36 36 36 36 35 34 34 33 32 31 31 31 30 29 28 27 26 24 23 23 23 23 22 22 22 23 23 23 23 24 24 25 25 26 27 27 28 28 28
42 41 40 38 38 37 37 37 36 36 35 35 34 33 32 32 31 30 29 29 28 26 25 25 24 24 24 24 24 24 24 25 25 25 26 27 27 27 28 28 29 29 30
43 42 41 40 39 39 39 38 38 37 36 36 34 34 34 33 32 32 31 30 30 28 28 26 26 26 26 26 26 26 26 26 26 26 27 28 28 29 29 29 30 30 31
44 43 42 41 40 39 39 39 39 39 38 37 36 35 35 35 34 33 32 31 31 30 30 29 27 27 27 27 27 27 27 27 28 28 28 29 30 30 30 30 30 31 31
44 43 42 41 41 41 41 40 39 39 39 39 38 36 36 36 35 34 34 33 33 32 31 30 29 28 28 28 28 28 28 29 29 29 29 30 30 30 30 31 31 31 31
44 43 43 42 42 41 41 40 40 40 39 39 39 38 38 37 36 36 35 35 34 34 33 32 31 30 29 29 29 29 29 29 30 30 30 30 31 31 31 31 32 32 32
44 43 43 42 41 41 41 40 40 40 39 39 39 38 38 38 38 37 37 36 36 35 34 33 32 32 31 30 30 30 30 30 31 31 31 31 32 32 32 32 33 33 34
44 43 43 43 42 41 40 40 40 39 39 39 39 39 39 39 38 38 37 36 36 36 35 34 34 33 32 31 31 31 31 31 32 32 32 32 33 33 33 33 34 34 35
44 44 44 44 43 42 41 40 40 40 40 40 39 39 40 40 40 39 38 38 38 37 37 36 35 34 33 32 32 32 32 32 33 33 33 33 34 34 34 35 35 36 36
45 44 43 42 43 43 42 41 41 41 41 41 40 41 41 41 41 40 40 38 39 38 38 37 35 35 34 34 34 34 33 33 34 34 34 34 34 35 36 36 36 37 37
45 45 43 43 43 44 44 43 43 43 42 42 42 42 42 41 41 41 40 39 38 38 37 37 36 35 35 35 35 35 35 34 35 35 35 35 35 36 36 36 37 38 38
46 45 44 44 43 43 44 43 43 42 42 43 42 42 42 42 42 42 42 41 39 38 37 37 36 36 36 35 35 35 36 36 36 36 36 36 36 36 36 37 38 38 38
45 45 44 45 43 43 44 42 43 43 43 44 44 43 42 42 42 42 42 42 41 39 38 37 37 37 36 36 36 36 36 37 37 36 36 36 36 37 37 38 38 39 39
46 45 46 44 44 43 43 42 41 42 43 45 46 45 44 43 43 41 41 41 41 40 39 38 37 37 37 37 37 37 37 37 36 37 37 37 37 37 37 38 38 39 40
Wind_Direction
227 226 225 225 225 225 224 223 223 223 224 222 221 221 220 220 221 222 224 228 230 235 247 258 266 276 284 290 295 300 304 309 312 315 317 318 319 319 319 319 318 318 317
227 227 226 226 225 225 225 225 225 226 227 226 226 227 226 226 227 228 230 238 242 246 255 263 268 274 282 287 291 296 300 303 306 309 310 311 313 315 315 315 315 315 315
229 228 227 226 226 226 226 226 227 227 229 230 230 230 230 231 232 235 238 242 247 253 258 263 269 273 278 282 287 292 296 300 302 304 305 308 309 310 311 313 314 314 314
229 228 227 227 228 228 228 228 229 230 231 231 232 232 234 234 236 239 241 245 249 255 259 262 268 272 274 279 285 290 294 297 300 301 303 305 305 306 307 309 311 312 312
229 229 229 229 229 230 230 230 230 231 232 232 232 234 237 239 241 242 244 247 250 255 259 262 267 270 273 278 283 287 290 293 296 298 299 301 302 303 304 305 307 309 310
229 230 231 231 231 232 232 232 232 232 233 234 235 236 237 241 243 244 245 248 251 254 258 262 265 267 272 277 280 284 288 291 293 295 296 298 299 301 302 303 305 306 307
229 230 231 233 234 234 234 235 234 234 235 235 236 237 238 240 243 245 246 249 252 254 257 261 265 267 271 276 278 282 287 291 292 294 295 296 298 300 301 302 303 304 305
231 231 231 233 234 235 235 235 236 235 236 236 237 238 239 240 241 244 246 249 252 254 257 261 264 267 270 274 277 281 285 289 291 292 293 295 296 298 300 301 302 303 304
232 232 232 234 235 235 235 235 237 237 236 237 238 238 239 240 241 244 246 249 252 255 257 260 263 267 269 273 276 280 283 286 289 291 292 294 296 298 299 299 301 302 302
232 233 233 234 236 237 236 236 237 237 236 236 239 239 240 240 242 244 246 248 251 254 257 260 262 266 269 272 275 278 281 284 287 289 292 294 295 296 297 298 299 300 300
232 233 235 234 236 237 238 237 237 237 236 236 239 240 240 241 242 244 247 248 251 254 256 260 263 264 268 272 274 277 280 282 285 287 290 292 294 295 295 296 297 299 300
232 233 235 235 236 237 238 238 238 237 237 237 239 240 241 242 242 244 247 249 250 253 256 260 263 265 268 271 273 276 279 282 284 286 289 291 293 293 294 295 296 297 298
232 233 234 235 236 237 238 238 238 238 237 237 238 239 242 243 244 245 246 248 250 252 255 259 262 266 269 270 274 276 279 281 283 285 287 290 291 292 293 294 295 295 297
232 233 235 236 236 237 238 238 238 239 238 238 239 240 241 243 245 245 246 249 251 253 255 258 261 265 269 271 273 276 278 280 282 285 287 289 290 291 292 293 294 295 296
233 234 235 236 237 237 238 238 239 240 240 239 239 240 241 243 245 246 247 249 252 255 256 259 262 266 269 271 273 276 279 280 283 285 288 290 290 291 291 293 294 294 295
233 234 236 237 238 238 239 238 238 239 240 239 239 240 242 244 245 247 248 249 252 254 257 260 262 265 268 271 273 275 278 281 283 285 287 289 290 290 290 291 292 294 294
233 234 235 235 236 237 238 237 236 237 238 240 240 241 242 244 246 247 249 250 252 254 257 259 262 265 269 271 272 274 278 281 283 284 286 288 289 289 290 290 291 293 294
232 233 233 235 235 236 236 237 237 237 237 238 239 241 242 244 246 247 248 251 253 255 257 259 262 265 269 271 272 274 278 280 282 284 285 286 287 288 289 290 290 291 293
231 231 232 234 236 235 235 236 236 237 238 239 240 241 243 244 245 248 249 250 252 254 256 259 262 265 268 270 272 274 278 280 282 283 284 286 287 287 288 289 289 290 291
230 231 232 234 235 235 234 234 235 236 238 239 241 242 244 244 245 246 248 249 252 254 256 258 261 264 267 269 271 274 277 280 283 284 285 285 286 287 287 288 289 290 291
230 231 232 234 235 235 235 233 235 235 236 238 240 241 243 244 246 247 248 249 252 254 256 258 260 263 266 269 271 273 276 279 282 283 283 284 286 287 287 289 290 290 291
229 230 231 233 234 234 235 235 236 237 237 239 241 241 243 245 246 248 249 250 253 255 256 257 260 263 266 269 271 274 275 277 280 282 283 285 286 287 288 289 290 291 292
229 229 232 233 233 234 235 237 237 238 238 240 241 242 244 245 247 248 251 251 253 254 256 258 260 263 266 269 271 274 274 276 279 281 282 283 285 287 288 289 290 292 293
230 230 232 234 235 233 235 237 238 238 239 239 239 240 243 245 247 249 251 252 254 254 256 258 260 262 265 268 271 274 275 278 280 281 281 283 285 287 288 289 290 292 293
231 232 233 233 234 233 234 237 239 239 239 238 238 239 242 244 246 248 250 252 254 255 256 259 261 264 266 268 271 274 275 278 279 280 281 282 284 286 288 290 291 292 293
232 234 233 234 234 234 234 236 239 239 239 238 238 239 241 243 244 246 248 250 253 255 257 259 262 265 267 269 271 273 275 278 279 279 280 281 283 286 287 289 291 292 294
Height
5861 5863 5864 5865 5866 5867 5868 5869 5871 5872 5872 5873 5874 5874 5874 5875 5875 5875 5876 5876 5876 5876 5876 5876 5876 5875 5875 5875 5874 5874 5873 5872 5872 5871 5870 5869 5868 5867 5866 5864 5863 5862 5860
5858 5859 5861 5862 5864 5865 5866 5867 5868 5869 5870 5871 5872 5872 5873 5873 5874 5874 5874 5874 5875 5875 5875 5874 5874 5874 5874 5873 5873 5872 5872 5871 5870 5869 5868 5867 5866 5865 5864 5863 5861 5860 5858
5854 5856 5857 5859 5861 5862 5863 5864 5866 5867 5868 5869 5870 5870 5871 5871 5872 5872 5872 5873 5873 5873 5873 5873 5873 5872 5872 5872 5871 5871 5870 5869 5869 5868 5866 5865 5864 5863 5862 5861 5859 5858 5856
5850 5852 5854 5856 5857 5858 5860 5861 5862 5864 5865 5866 5867 5868 5868 5869 5869 5870 5870 5871 5871 5871 5871 5871 5871 5871 5870 5870 5869 5869 5868 5867 5867 5866 5864 5863 5862 5861 5860 5858 5857 5855 5854
5845 5847 5849 5851 5853 5855 5856 5857 5859 5860 5861 5863 5864 5865 5865 5866 5867 5867 5868 5868 5868 5869 5869 5869 5869 5869 5868 5868 5867 5867 5866 5865 5864 5863 5862 5861 5860 5859 5857 5856 5854 5853 5851
5840 5842 5845 5847 5848 5850 5852 5853 5855 5856 5858 5859 5860 5861 5862 5863 5864 5864 5865 5865 5866 5866 5866 5866 5866 5866 5866 5865 5865 5864 5864 5863 5862 5861 5860 5859 5857 5856 5855 5853 5852 5850 5848
5835 5837 5839 5841 5843 5845 5847 5848 5850 5851 5853 5855 5856 5857 5859 5860 5860 5861 5862 5862 5862 5863 5863 5863 5863 5863 5863 5863 5862 5862 5861 5860 5859 5858 5857 5856 5855 5853 5852 5850 5848 5847 5845
5829 5831 5833 5836 5838 5840 5841 5843 5845 5846 5848 5850 5851 5853 5854 5855 5857 5857 5858 5859 5859 5859 5860 5860 5860 5860 5860 5859 5859 5858 5858 5857 5856 5855 5854 5853 5852 5850 5849 5847 5845 5843 5841
5822 5824 5827 5829 5831 5833 5835 5837 5839 5841 5843 5845 5847 5848 5850 5851 5852 5853 5854 5855 5855 5856 5856 5856 5857 5857 5856 5856 5856 5855 5854 5854 5853 5851 5850 5849 5848 5846 5845 5843 5841 5840 5838
5814 5817 5820 5822 5825 5827 5829 5831 5833 5835 5837 5839 5841 5843 5844 5846 5847 5848 5849 5850 5851 5851 5852 5852 5852 5853 5853 5852 5852 5851 5851 5850 5849 5848 5846 5845 5844 5842 5841 5839 5837 5835 5833
5806 5809 5812 5815 5818 5820 5822 5824 5826 5828 5830 5832 5835 5837 5839 5840 5842 5843 5844 5845 5846 5847 5847 5848 5848 5848 5848 5848 5848 5847 5846 5846 5845 5844 5842 5841 5840 5838 5836 5835 5833 5831 5829
5798 5802 5804 5807 5810 5812 5815 5817 5819 5821 5823 5826 5828 5830 5832 5834 5836 5837 5839 5840 5841 5842 5843 5843 5843 5843 5843 5843 5843 5842 5842 5841 5840 5839 5838 5837 5835 5833 5832 5830 5828 5826 5824
5789 5793 5796 5799 5801 5804 5807 5809 5812 5814 5816 5819 5821 5823 5826 5828 5829 5831 5833 5834 5835 5836 5837 5838 5838 5838 5838 5838 5838 5838 5837 5836 5835 5834 5833 5832 5830 5829 5827 5825 5823 5821 5819
5780 5784 5787 5790 5793 5796 5798 5801 5804 5806 5809 5811 5814 5817 5819 5821 5823 5825 5827 5828 5830 5831 5832 5832 5833 5833 5833 5833 5833 5832 5832 5831 5830 5829 5828 5826 5825 5823 5821 5819 5817 5815 5813
5771 5775 5779 5782 5785 5787 5790 5793 5796 5799 5801 5804 5807 5810 5812 5815 5816 5818 5820 5822 5823 5825 5826 5827 5827 5828 5828 5828 5828 5827 5826 5825 5824 5823 5822 5820 5819 5817 5815 5813 5811 5809 5807
5762 5766 5769 5773 5775 5778 5781 5785 5788 5791 5794 5797 5799 5802 5805 5807 5809 5812 5813 5815 5817 5818 5819 5820 5821 5822 5822 5822 5822 5821 5821 5820 5819 5817 5816 5814 5813 5811 5809 5807 5805 5803 5801
5752 5756 5760 5763 5766 5770 5773 5776 5779 5782 5786 5789 5792 5795 5798 5800 5802 5804 5806 5808 5810 5811 5812 5813 5814 5815 5815 5815 5815 5815 5814 5813 5812 5811 5810 5808 5806 5805 5803 5801 5799 5797 5794
5742 5746 5751 5754 5757 5761 5764 5767 5770 5774 5777 5781 5784 5787 5790 5792 5795 5797 5799 5801 5803 5804 5805 5807 5808 5809 5809 5809 5809 5808 5808 5807 5806 5804 5803 5801 5800 5798 5796 5794 5792 5790 5788
5732 5737 5741 5745 5748 5752 5755 5759 5762 5765 5769 5773 5776 5779 5782 5785 5787 5789 5792 5794 5795 5797 5798 5800 5801 5802 5802 5802 5802 5802 5801 5800 5799 5798 5796 5794 5793 5791 5789 5787 5785 5783 5780
5723 5728 5732 5736 5739 5743 5747 5750 5754 5758 5761 5764 5768 5771 5774 5777 5779 5781 5784 5786 5788 5789 5791 5793 5794 5795 5795 5795 5795 5795 5794 5793 5792 5790 5789 5787 5785 5783 5781 5779 5777 5775 5773
5714 5719 5723 5727 5731 5735 5739 5743 5746 5750 5753 5756 5759 5762 5765 5768 5771 5773 5775 5778 5780 5782 5784 5785 5786 5787 5787 5788 5788 5788 5787 5786 5784 5783 5781 5779 5777 5776 5774 5771 5769 5767 5765
5705 5710 5715 5718 5723 5727 5731 5734 5738 5741 5745 5748 5751 5754 5757 5760 5762 5765 5767 5769 5771 5774 5775 5777 5779 5779 5780 5780 5780 5780 5780 5779 5777 5775 5773 5771 5770 5768 5766 5763 5761 5759 5756
5696 5702 5706 5709 5713 5718 5722 5725 5729 5733 5736 5739 5743 5746 5748 5751 5754 5757 5759 5761 5763 5765 5768 5769 5771 5772 5772 5772 5772 5772 5771 5771 5770 5768 5766 5764 5762 5760 5758 5755 5753 5751 5748
5688 5693 5697 5701 5705 5709 5713 5716 5720 5724 5728 5731 5734 5737 5740 5744 5746 5749 5751 5753 5756 5758 5760 5761 5762 5763 5764 5764 5764 5763 5763 5762 5761 5760 5759 5756 5754 5752 5750 5747 5745 5742 5740
5679 5684 5688 5692 5696 5700 5704 5708 5711 5715 5718 5722 5725 5729 5732 5735 5738 5741 5743 5745 5748 5750 5751 5753 5754 5755 5755 5756 5756 5755 5755 5754 5752 5751 5751 5749 5746 5744 5742 5739 5736 5734 5731
5669 5674 5678 5682 5687 5691 5695 5699 5702 5706 5709 5712 5716 5720 5723 5726 5729 5732 5734 5737 5739 5741 5743 5744 5746 5747 5747 5748 5747 5747 5746 5745 5744 5743 5742 5740 5739 5736 5733 5730 5728 5725 5722